Hilo, HI

12:29 AM HST on November 22, 2017 (GMT -1000)
Hilo International

Weather History for PHTO - February, 2014

Change the Weather History Date:

Saturday, February 15, 2014

  Actual Average Record
Temperature  
Mean Temperature 75 °F 71 °F  
Max Temperature 82 °F 79 °F 87 °F (1983)
Min Temperature 67 °F 63 °F 57 °F (1957)
Degree Days  
Heating Degree Days 0 0  
Month to date heating degree days 0 0  
Since 1 July heating degree days 0 0  
Cooling Degree Days 10 6  
Month to date cooling degree days 141 90  
Year to date cooling degree days 353 288  
Growing Degree Days 24 (Base 50)    
Moisture  
Dew Point 68 °F    
Average Humidity 82    
Maximum Humidity 100    
Minimum Humidity 63    
Precipitation  
Precipitation 0.03 in 0.34 in 5.31 in (1969)
Month to date precipitation 1.57 5.03  
Year to date precipitation 7.23 14.29  
Snow  
Snow 0.00 in - - ()
Month to date snowfall 0.0  
Since 1 July snowfall 0.0  
Snow Depth 0.00 in    
Sea Level Pressure  
Sea Level Pressure 29.98 in    
Wind  
Wind Speed 8 mph (SSW)    
Max Wind Speed 22 mph    
Max Gust Speed 26 mph    
Visibility 10 miles    
Events Rain    
T = Trace of Precipitation, MM = Missing Value Source: NWS Daily Summary

Daily Weather History Graph

Daily Weather History Graph

Search for Another Location

Airport or City:

Trip Planner

Search our weather history database for the weather conditions in past years. The results will help you decide how hot, cold, wet, or windy it might be!

Date:

Astronomy

Feb. 15, 2014 Rise Set
Actual Time 6:48 AM HST 6:19 PM HST
Civil Twilight 6:26 AM HST 6:42 PM HST
Nautical Twilight 6:00 AM HST 7:08 PM HST
Astronomical Twilight 5:34 AM HST 7:34 PM HST
Moon 7:14 PM HST (2/15) 7:05 AM HST (2/15)
Length of Visible Light 12h 15m
Length of Day
11h 30m
Full, 99% of the Moon is Illuminated
Feb 15
Full
Feb 22
Last Quarter
Feb 28
New
Mar 8
First Quarter
Mar 16
Full

Hourly Weather History & Observations

Time (HST) Temp. Heat Index Dew Point Humidity Pressure Visibility Wind Dir Wind Speed Gust Speed Precip Events Conditions
12:53 AM 69.1 °F - 68.0 °F 96% 30.00 in 10.0 mi Calm Calm - N/A   Mostly Cloudy
1:53 AM 69.1 °F - 66.9 °F 93% 29.99 in 10.0 mi SW 4.6 mph - N/A   Mostly Cloudy
2:53 AM 69.1 °F - 66.9 °F 93% 29.98 in 10.0 mi SW 4.6 mph - N/A   Mostly Cloudy
3:53 AM 69.1 °F - 66.9 °F 93% 29.96 in 10.0 mi SW 5.8 mph - N/A   Mostly Cloudy
4:53 AM 68.0 °F - 66.9 °F 96% 29.97 in 10.0 mi Calm Calm - N/A   Mostly Cloudy
5:53 AM 66.9 °F - 66.0 °F 97% 29.98 in 10.0 mi SW 5.8 mph - N/A   Mostly Cloudy
6:53 AM 68.0 °F - 66.0 °F 93% 30.00 in 10.0 mi SW 6.9 mph - N/A   Mostly Cloudy
7:53 AM 69.1 °F - 64.9 °F 87% 30.01 in 10.0 mi SW 8.1 mph - N/A   Mostly Cloudy
8:53 AM 73.9 °F - 66.0 °F 76% 30.03 in 10.0 mi SW 3.5 mph - N/A   Mostly Cloudy
9:53 AM 75.9 °F - 69.1 °F 79% 30.03 in 10.0 mi SE 5.8 mph - N/A   Mostly Cloudy
10:53 AM 80.1 °F 82.7 °F 68.0 °F 67% 30.02 in 10.0 mi South 9.2 mph - N/A   Scattered Clouds
11:53 AM 81.0 °F 84.1 °F 69.1 °F 67% 29.99 in 10.0 mi ESE 13.8 mph - N/A   Scattered Clouds
12:53 PM 82.0 °F 84.9 °F 68.0 °F 62% 29.95 in 10.0 mi SE 13.8 mph - N/A   Scattered Clouds
1:53 PM 82.0 °F 84.9 °F 68.0 °F 62% 29.92 in 10.0 mi SE 18.4 mph - N/A   Scattered Clouds
2:53 PM 81.0 °F 84.4 °F 70.0 °F 69% 29.90 in 10.0 mi SE 15.0 mph - N/A   Partly Cloudy
3:53 PM 79.0 °F - 69.1 °F 72% 29.91 in 10.0 mi SE 18.4 mph 25.3 mph N/A   Scattered Clouds
4:53 PM 78.1 °F - 68.0 °F 71% 29.92 in 10.0 mi SE 13.8 mph - N/A   Partly Cloudy
5:53 PM 75.9 °F - 69.1 °F 79% 29.94 in 10.0 mi SSE 8.1 mph - N/A   Mostly Cloudy
6:53 PM 73.9 °F - 69.1 °F 85% 29.98 in 10.0 mi South 3.5 mph - N/A   Mostly Cloudy
7:53 PM 73.0 °F - 69.1 °F 87% 29.99 in 10.0 mi SSW 4.6 mph - N/A   Mostly Cloudy
8:53 PM 72.0 °F - 69.1 °F 91% 30.01 in 10.0 mi SW 4.6 mph - N/A   Partly Cloudy
9:32 PM 73.0 °F - 69.1 °F 87% 30.02 in 10.0 mi South 3.5 mph - 0.00 in   Overcast
9:53 PM 71.1 °F - 70.0 °F 96% 30.02 in 5.0 mi Calm Calm - 0.00 in Rain Rain
10:53 PM 71.1 °F - 70.0 °F 96% 30.01 in 10.0 mi WSW 4.6 mph - 0.03 in Rain Light Rain
11:01 PM 71.1 °F - 70.0 °F 96% 30.01 in 10.0 mi West 5.8 mph - 0.00 in Rain Light Rain
11:25 PM 71.1 °F - 70.0 °F 96% 30.01 in 10.0 mi SW 3.5 mph - 0.00 in   Overcast
11:53 PM 71.1 °F - 70.0 °F 96% 30.01 in 10.0 mi West 6.9 mph - 0.00 in   Overcast